KUIPER-00383

导读

KUIPER-00383(NORAD编号69268)是亚马逊低轨星座(原柯伊伯计划)的组网卫星,隶属美国亚马逊公司的全球低轨互联网星座项目。该卫星大概率随2025年9月25日Kuiper Atlas 3(KA-03)任务由宇宙神5火箭发射升空,初始进入450公里轨道后,经轨道抬升最终工作在630公里高度的低轨层,轨道倾角51.9°。它与同批次卫星共同支撑星座组网,核心功能是为全球偏远、网络覆盖不足区域提供低延迟、高带宽的互联网接入服务,目前处于在轨服役状态,是亚马逊3236颗卫星组网计划的现役组成部分。

Basic Information
目录编号:
69268
目录名称:
KUIPER-00383
国际标识:
2026-118B
轨道中心:
EARTH
卫星名称:
KUIPER-00383
卫星全名:
KUIPER-00383
卫星状态:
在轨 (已飞行60 天)
发射日期:
2026-05-29 UTC
国别 :
美国 (US)
星等 :
--
Orbit Information
数据来源 国际轨道数据
星历时间: 2026-07-27T22:00:02+0800
10小时前
查看轨道信息
半长轴: 6929.364km
偏心率: 0.001143
轨道倾角: 51.889°
近地点辐角 338.107°
升交点赤经 220.736°
平近点角 172.259°
近地点: 543.306km
远地点: 559.148km
周期: 95.675分钟
每日圈数: 15.050909
Detailed Information
使用方式:
暂无
2D Orbit Map
3D Orbit Map
Orbit Altitude Analysis Chart
Orbit Inclination Analysis Chart
Orbit Comprehensive Analysis Chart
View Comprehensive Chart